PAGEOS 1 DEB, 2511

Orbit data source: Space-Track

PAGEOS 1 DEB, 2511 is space debris in LEO originally from a launch on Fri, 24 Jun 1966 UTC launched from the Air Force Western Test Range (AFWTR). Debris objects in space refer to the collection of defunct objects orbiting the Earth. Examples of debris include non-operational satellites, rocket bodies, and fragments generated from explosions, collisions, or faulty payload assembly.

Loading next visibility...
Identifier
2511, 1966-056D
Orbit
LEO
Country
Flag of USUS
Related business
Manufacturer
Goodyear
Mission
Spacecraft
Bus & Motor
ECHO CANISTER, Unknown motor
Mass
9 kg wet, 9 kg dry
Launch date (UTC)
1966-06-24 (59 years ago)
Launch vehicle
Unknown
Launch site
Air Force Western Test Range (AFWTR)
Object type
Payload
Rocket body
Debris
Shape & HBR
Unknown
Radar Cross Section
Large (>1 m²)

Expand to show TLE details & history
Last TLE update: 6 days ago

TLE from 6 days ago
0 PAGEOS 1 DEB
1  2511U 66056D   25344.17102057  .00000011  00000-0  88686-2 0  9993
2  2511  86.9942 241.3041 0011826 350.4650   9.5930  7.93368439337590
Epoch: 2025-12-10T04:06Z
TLE epoch observation values (Epoch: 2025-12-10T04:06:16.177Z)
Latitude
-0.00004°
Longitude
100.59151°
Altitude
4,230.58 km
Speed
6.134 km/s
True Right ascension
16h 05m 12s
True Declination
0° 00' 00"
Sunlit
Object was in daylight at epoch
Visualization orbit readout
Latitude
Unknown
Longitude
Unknown
Altitude
Unknown
Speed
Unknown
Apparent Right ascension
Unknown
Apparent Declination
Unknown
Sunlit
N/A
Visualization observer readout
Local Sidereal Time
04:04:29
Azimuth
Unknown
Elevation
Unknown
Doppler factor
Unknown
Orbital elements
Apogee altitude
4,251.408 km
Perigee altitude
4,226.297 km
Semi-major axis
10,616.99 km
Eccentricity
0.00118
Inclination
86.9942°
RAAN
241.3041°
Arg. of periapsis
350.465°
True anomaly
9.61562°
Mean anomaly
9.593°
Eccentric anomaly
9.6043°
Mean motion
1.984 °/min
Orbital period
181.45 mins
BSTAR
0.0088686
Loading maneuver chart data...
Computing Atmospheric mass density...

Documentation

Showing up to 5 results
|